Jackpot

Texas Poker Multi Jackpot System

Kini Telah hadir Jackpot SUPER ROYAL FLUSH

Kini Telah hadir Jackpot 2000 (khusus table VIP keatas).

Ikutilah global jackpot yang tersedia di system kami, dengan system jackpot terbaru dan pertama di indonesia, anda dapat membeli jackpot dengan harga 100 rupiah saja dan menangkan hadiahnya hingga puluhan juta rupiah.

Jackpot bukanlah suatu keharusan untuk dibeli, namun kami memberikan suatu fitur tambahan untuk member tercinta dari www.acehpoker.net.

Terdapat tiga pilihan harga jackpot yang bisa anda beli yaitu :100,500,1000 dan 2000(khusus table VIP Keatas) rupiah.

Hadiah dari Multi jackpot system www.acehpoker.net

  1. full house x 10 harga jackpot yang anda beli.
      (contoh:anda membeli 1000 maka:1000 X10 = 10.000)
  2. four of kind x 250 harga jackpot yang anda beli
      (contoh:anda membeli 1000 maka:1000 X250 = 250.000)
  3. Straight flush x 1200
      (contoh:anda membeli 1000 maka:1000 X1200 = 1.200.000)
  4. Royal flush x 10000 harga jackpot yang anda beli
      (contoh:anda membeli 1000 maka:1000 X10000 = 10.000.000)
  5. SUPER ROYAL FLUSH x 30000 harga jackpot yang anda beli
      (contoh:anda membeli 1000 maka:1000 X30000 = 30.000.000)

Kondisi kartu

  1. full house adalah kondisi kartu dimana kartu anda dan kartu tengah dengan total 7 kartu bisa mendapatkan nilai 5 kartu dengan kombinasi 1 tris(three of kind) dan 1 pair, contoh 3 kartu 10 dan 2 kartu 5
  2. Four of kind adalah kondisi kartu dimana kartu anda dan kartu tengah dengan total 7 kartu bisa mendapatkan nilai 5 kartu dengan kombinasi 4 kartu yang sama jumlah dan 1 kartu apapun juga contoh anda mendapatkan 4 buah kartu angka 3 dan 1 kartu apapun.
  3. Staright flush adalah kondisi kartu dimana kartu anda dan kartu tengah dengan total 7 kartu bisa mendapatkan nilai 5 kartu dengan kombinasi seri / staright dengan kembang yang sama contoh : urutan kartu dari angka 5, 6, 7, 8 , 9 10 dengan kembang yg sama misalnya as hati
  4. Royal flush adalah kondisi kartu dimana kartu anda dan kartu tengah dengan total 7 kartu bisa mendapatkan nilai 5 kartu dengan kombinasi seri / staright dengan kembang yang sama tetapi kartu tersebut haruslah dimulai dari 10. contoh 10, Queen, Jack, King dan aces dengan kembang yang sama
  5. Super Royal flush adalah kondisi kartu dimana Kedua kartu anda digabung dengan 3 kartu pertama meja haruslah royal flush. contoh kartu anda 10,Queen kembang sama dan 3 kartu pertama meja adalah Jack, King dan aces dengan kembang yang sama

Demikian adalah penjelasan dari Multi Jackpot www.acehpoker.net terima kasih dan selamat bermain salam hoki dari kami

Texas Poker Jackpot Winner

TOP SUPER ROYAL FLUSH
No.TanggalNamaPriceWin
125/05 04:52SONGONG21Super Royal flush15,000,000
225/05 03:00WAMBE88Super Royal flush15,000,000
325/05 01:42NUVO199Super Royal flush15,000,000
425/05 01:25COPYWHIT3Super Royal flush6,000,000
525/05 00:47D0LPI3NDSuper Royal flush15,000,000
TOP ROYAL FLUSH
No.TanggalNamaPriceWin
125/05 14:59G9AFAREZ7URoyal flush2,000,000
225/05 14:53DUNGNETRoyal flush2,000,000
325/05 14:38DOPO_888Royal flush5,000,000
425/05 14:27OGEB123Royal flush20,000,000
525/05 14:02OREOPANDARoyal flush2,000,000
TOP STRAIGHT FLUSH
No.TanggalNamaPriceWin
125/05 15:47PRET1297Straight Flush600,000
225/05 15:47FLY8X51MV7Straight Flush600,000
325/05 15:47NTH1995Straight Flush600,000
425/05 15:44B2UINLEFINARI12Straight Flush600,000
525/05 15:44MONGKEY21Straight Flush600,000
LATEST JACKPOT
No.TanggalNamaPriceWin
125/05 15:50SUPREMFull House5,000
225/05 15:50PRECIL18Full House2,000
325/05 15:50BROWN78Full House2,000
425/05 15:50I4H83BD82EFull House2,000
525/05 15:50TANAMEHFull House10,000
625/05 15:50LUNA104Full House5,000
725/05 15:50NATION_889Full House2,000
825/05 15:50CA5B2E7DFull House1,000
925/05 15:50AZZ4M212Full House5,000
1025/05 15:50BARGOT71Full House2,000
1125/05 15:50DARK_SHINEFull House2,000
1225/05 15:50SHADOWFOODFull House10,000
1325/05 15:50TEMPEE13Full House10,000
1425/05 15:50MITA2002Full House2,000
1525/05 15:50JHONJU4ND4Full House5,000
1625/05 15:50GENENG_888Full House5,000
1725/05 15:50LOCKAWAYFull House5,000
1825/05 15:50HAKKYR7Full House20,000
1925/05 15:50YANGLEK13Full House2,000
2025/05 15:50PRET1297Full House5,000
2125/05 15:50KARDO96Full House2,000
2225/05 15:50NOPPRI83Full House5,000
2325/05 15:49DIDIN874Four Of A Kind25,000
2425/05 15:49HAOWKU01Full House5,000
2525/05 15:49TANTAN8778Full House20,000
2625/05 15:49YUJIN800Full House1,000
2725/05 15:49VULPIX2000Full House1,000
2825/05 15:49PEDANG777Four Of A Kind25,000
2925/05 15:49LOPELIPEFull House1,000
3025/05 15:49DWBTEI38Full House5,000
3125/05 15:49DWBTR1381Full House5,000
3225/05 15:49WSK004VXHMFull House5,000
3325/05 15:49GAGA56Full House5,000
3425/05 15:49ARIF1ZFull House10,000
3525/05 15:49DHENI711Full House10,000
3625/05 15:49MONGKEY21Full House5,000
3725/05 15:49LILIK369Full House5,000
3825/05 15:49SAMYONG20Four Of A Kind125,000
3925/05 15:49KATUNG11Full House5,000
4025/05 15:49JS1993Full House5,000
4125/05 15:49ONG358Full House5,000
4225/05 15:49ABI85Full House5,000
4325/05 15:49CANEZA2Full House2,000
4425/05 15:49OGEIM40TCMFull House10,000
4525/05 15:49ARIEF888_Full House2,000
4625/05 15:49ADMINDEPOKFull House5,000
4725/05 15:49CARIJP22Full House2,000
4825/05 15:49INDRI1109Full House10,000
4925/05 15:49BUMIPERKASFull House1,000
5025/05 15:49KURNIA1011Full House2,000

Domino Multi Jackpot System

Ikutilah global jackpot yang tersedia di system kami, dengan system jackpot terbaru dan pertama di indonesia, anda dapat membeli jackpot dengan harga 100 rupiah saja dan menangkan hadiahnya hingga puluhan juta rupiah.

Jackpot bukanlah suatu keharusan untuk dibeli, namun kami memberikan suatu fitur tambahan untuk member tercinta dari www.acehpoker.net.

Terdapat tiga pilihan harga jackpot yang bisa anda beli yaitu :100,500 dan 1000 rupiah.

Hadiah dari Multi jackpot system www.acehpoker.net

  1. Murni Kecil x 50 harga jackpot yang anda beli.
      (contoh:anda membeli 1000 maka:1000 X 50 = 50.000)
  2. Murni Besar x 50 harga jackpot yang anda beli
      (contoh:anda membeli 1000 maka:1000 X 50 = 50.000)
  3. BALAK x 100 harga jackpot yang anda beli
      (contoh:anda membeli 1000 maka:1000 X 100 = 100.000)
  4. ENAM DEWA x 6666 harga jackpot yang anda beli
      (contoh:anda membeli 1000 maka:1000 X 6666 = 6.666.000)

Demikian adalah penjelasan dari Multi Jackpot www.acehpoker.net terima kasih dan selamat bermain salam hoki dari kami

Domino Jackpot Winner

TOP ENAM DEWA
No.TanggalNamaPriceWin
125/05 15:50JUHUB123murni enam6,666,000
225/05 13:56PANGGA86murni enam6,666,000
325/05 13:40WAKWAW127murni enam3,333,000
425/05 12:15NGEMIS18murni enam666,600
525/05 09:51ARKHAN29murni enam3,333,000
TOP BALAK
No.TanggalNamaPriceWin
125/05 15:49NA11N99balak10,000
225/05 15:46MIKEYWAYbalak100,000
325/05 15:41ODL1YEON0Rbalak50,000
425/05 15:39HN9WC4DS4Zbalak100,000
525/05 15:38P4RL3NT338balak50,000
LATEST JACKPOT
No.TanggalNamaPriceWin
125/05 15:50FETZUmurni besar50,000
225/05 15:50JUHUB123murni enam6,666,000
325/05 15:49NA11N99balak10,000
425/05 15:49DWIDAIRmurni besar50,000
525/05 15:49TOKEK1977murni kecil25,000
625/05 15:48BADBOY200murni kecil50,000
725/05 15:47ENDELLmurni kecil5,000
825/05 15:47TUNA68murni kecil50,000
925/05 15:47BULI03murni kecil50,000
1025/05 15:46MIKEYWAYbalak100,000
1125/05 15:45T4DPRADILANmurni kecil50,000
1225/05 15:44ODL1YEON0Rmurni besar25,000
1325/05 15:43BUNGOL99murni besar50,000
1425/05 15:43SIBOLANGXMmurni besar50,000
1525/05 15:43SHR72murni kecil50,000
1625/05 15:41BORRE77murni besar25,000
1725/05 15:41ODL1YEON0Rbalak50,000
1825/05 15:40BAHTIAR87murni besar25,000
1925/05 15:39HN9WC4DS4Zbalak100,000
2025/05 15:39C16NG55136murni kecil25,000
2125/05 15:38P4RL3NT338balak50,000
2225/05 15:38ABB11murni besar5,000
2325/05 15:37WILLYELmurni kecil5,000
2425/05 15:37FAKTA45balak100,000
2525/05 15:36IMAM1177lucky992,500
2625/05 15:36JAPAK6murni besar25,000
2725/05 15:36SHR72murni kecil50,000
2825/05 15:35DM82997murni besar25,000
2925/05 15:35MASSABEHmurni besar50,000
3025/05 15:35BAYU1983murni besar50,000
3125/05 15:34JAPAK6murni besar25,000
3225/05 15:33BORRE77murni kecil25,000
3325/05 15:29C16NG55136balak50,000
3425/05 15:29OYIKKK28balak100,000
3525/05 15:29ANDRESYmurni besar50,000
3625/05 15:28D1AM0NDmurni besar25,000
3725/05 15:28KPN72murni besar50,000
3825/05 15:28FEDA00D9murni kecil50,000
3925/05 15:28MKS25murni besar5,000
4025/05 15:28BULI03murni kecil50,000
4125/05 15:26IHZARY24balak50,000
4225/05 15:26BARJO123murni kecil50,000
4325/05 15:26JEKKAT99murni besar25,000
4425/05 15:26CAIGALON99balak10,000
4525/05 15:25GOYANGJP16murni kecil25,000
4625/05 15:24MEME1233murni kecil50,000
4725/05 15:22BIK_DWI008murni kecil25,000
4825/05 15:22TIAH212murni besar5,000
4925/05 15:22MAUDONK35balak10,000
5025/05 15:22SINAKlucky9925,000

Ceme Multi Jackpot System

Jackpot dilihat dari gabungan kartu pemain dengan kartu bandar. Bandar harus membeli jackpot sebanyak jumlah player yang sedang duduk. Sebagai contoh bila terdapat 3 pemain duduk bermain, dan bandar memutuskan untuk membeli jackpot Rp 1.000, maka pada periode tersebut bandar akan membeli jackpot sebanyak 3xRp1.000 = Rp3.000.

Jackpot bukanlah suatu keharusan untuk dibeli, namun kami memberikan suatu fitur tambahan untuk member tercinta dari www.acehpoker.net.

Terdapat tiga pilihan harga jackpot yang bisa anda beli yaitu :100,500 dan 1000 rupiah.

Hadiah dari Multi jackpot system www.acehpoker.net

  1. Murni Kecil x 50 harga jackpot yang anda beli.
      (contoh:anda membeli 1000 maka:1000 X 50 = 50.000)
  2. Murni Besar x 50 harga jackpot yang anda beli
      (contoh:anda membeli 1000 maka:1000 X 50 = 50.000)
  3. BALAK x 200 harga jackpot yang anda beli
      (contoh:anda membeli 1000 maka:1000 X 200 = 200.000)
  4. ENAM DEWA x 6666 harga jackpot yang anda beli
      (contoh:anda membeli 1000 maka:1000 X 6666 = 6.666.000)

Demikian adalah penjelasan dari Multi Jackpot www.acehpoker.net terima kasih dan selamat bermain salam hoki dari kami

Ceme Jackpot Winner

TOP ENAM DEWA
No.TanggalNamaPriceWin
125/05 15:36ROHISAH75murni enam6,666,000
225/05 15:36JACKARAKAmurni enam3,333,000
325/05 15:31DIBA87murni enam6,666,000
425/05 15:17ENGAS6969murni enam666,600
525/05 15:12ZILEMmurni enam6,666,000
TOP BALAK
No.TanggalNamaPriceWin
125/05 15:50FORTUNA_12balak100,000
225/05 15:50DEVHAbalak200,000
325/05 15:49MBAKWINDAbalak200,000
425/05 15:49MBAKWINDAbalak200,000
525/05 15:49POLIG4MYbalak200,000
LATEST JACKPOT
No.TanggalNamaPriceWin
125/05 15:50UUU1818murni kecil50,000
225/05 15:50HSANTO90murni besar5,000
325/05 15:50JIMBUL99murni besar50,000
425/05 15:50FORTUNA_12balak100,000
525/05 15:50NAYA555murni kecil50,000
625/05 15:50MILDREDmurni kecil50,000
725/05 15:50ENMmurni kecil25,000
825/05 15:50INTANKU17murni kecil50,000
925/05 15:50DEVHAbalak200,000
1025/05 15:50FUKYUNG85murni besar5,000
1125/05 15:49AZRIAN277murni besar25,000
1225/05 15:49C51RIAH482murni kecil50,000
1325/05 15:49MBAKWINDAbalak200,000
1425/05 15:49MBAKWINDAbalak200,000
1525/05 15:49RICO0118murni besar5,000
1625/05 15:49POLIG4MYbalak200,000
1725/05 15:49Y12NADIAbalak200,000
1825/05 15:49YOCASA1991murni kecil50,000
1925/05 15:49SHER5522balak200,000
2025/05 15:49NANGN2balak200,000
2125/05 15:49SLS26murni besar25,000
2225/05 15:48ROHISAH75murni kecil50,000
2325/05 15:48ROHISAH75murni kecil50,000
2425/05 15:48GUN077murni kecil25,000
2525/05 15:48JUPRIBOBmurni besar50,000
2625/05 15:48HJVEUTASG8balak200,000
2725/05 15:48G4L4NG55murni kecil50,000
2825/05 15:48EBIT07murni kecil50,000
2925/05 15:48CANGAK22murni besar50,000
3025/05 15:48BERY48balak100,000
3125/05 15:48KPW21murni kecil5,000
3225/05 15:48GONYICIL99murni besar50,000
3325/05 15:48TEEERR12murni besar50,000
3425/05 15:48KENYEK789balak200,000
3525/05 15:48ALEXA132balak200,000
3625/05 15:48HOTMA33balak200,000
3725/05 15:48POLIG4MYbalak200,000
3825/05 15:48Y12NADIAbalak100,000
3925/05 15:47AADRBCIT53murni besar25,000
4025/05 15:47RYANMY07murni besar50,000
4125/05 15:47NU_UPmurni kecil25,000
4225/05 15:47SUEX5murni kecil25,000
4325/05 15:47SAMSU551murni besar50,000
4425/05 15:46KOKO787balak100,000
4525/05 15:46LAZ1O00murni besar50,000
4625/05 15:46NIUS77murni besar5,000
4725/05 15:46POO00OOPbalak200,000
4825/05 15:46T4DKARMI19murni kecil50,000
4925/05 15:46GGDDXXmurni kecil50,000
5025/05 15:46K4993murni kecil5,000